Weather

Vsebine: Paragliding sitesCurrent conditionsCurrent conditions (amateur)Radar rainfal imageMeteo stationsPanoramic cameras


Current conditions (official report)

Show amateur stations

Click on a specific station to see its location

Location Weather conditions Temperature Wind Air pressure Last updated Geopedia
    °C direction speed (m/s) gusts (m/s) hPa    
Babno Polje 9   - - 2017-12-11 19:35:00
Babno Polje (756 m) 5   - - 2016-01-12 07:40:00
Bilje Nova Gorica 1   1 1 1012 2017-12-16 21:05:00
Bilje pri Novi Gorici 1   1 - 1012 2017-12-16 20:32:00
Blegoš -5   - - 2017-12-16 21:04:00
Bohinjska Češnjica -2   - - 2017-12-16 21:04:00
Boršt Gorenja vas -2   - 1 1014 2017-12-16 20:37:00
Bovec -2   1 2 1014 2017-12-16 20:37:00
Breginj -2   - - 2017-12-16 21:04:00
Bukovski vrh -2   - - 2017-12-16 21:04:00
Celje -1   1 2 1014 2017-12-16 20:34:00
Cerkniško jezero -2   - - 2017-12-16 21:04:00
Črnomelj 3   - - 1013 2017-12-16 20:32:00
Davča -4   - - 2017-12-16 21:04:00
Dobliče Črnomelj 2   - - 1014 2017-12-16 20:35:00
Dolenje Ajdovščina 5   2 4 2017-12-16 21:05:00
Gačnik   - - 2017-12-16 21:04:00
Godnje 2   2 3 2017-12-16 21:04:00
Gornji Grad -2   - - 2017-12-16 21:04:00
Hočko Pohorje 0   - - 2017-12-16 21:04:00
Hrastnik 1   - 2 1014 2017-12-16 20:38:00
Idrija 1   - - 2017-12-16 21:04:00
Ilirska Bistrica 2   2 6 2017-12-16 20:35:00
Iskrba -1   - 1 2017-12-16 21:04:00
Jeronim -2   - - 2017-12-16 21:04:00
Jeruzalem 1   - - 2017-12-16 21:04:00
Jezersko -7   - - 2017-12-16 21:03:00
Juršče   - - 2016-09-13 14:33:00
Kamniška Bistrica -2   - - 2017-12-16 21:04:00
Kanin -11   - - 2017-12-16 21:04:00
Katarina nad Ljubljano 0   - - 2017-12-16 13:32:00
Kočevje 0   1 1 2017-12-16 21:04:00
Koper Kapitanija 7   1 5 1011 2017-12-16 20:37:00
Korensko sedlo -4   - - 2017-12-16 21:04:00
Kraj. park Goričko 2   4 5 2017-12-16 20:34:00
Kranj 0   - - 2017-12-16 21:04:00
Kredarica -13   10 13 2017-12-16 21:04:00
Krn -1   - - 2017-12-16 21:04:00
Krško 0   - 2 1014 2017-12-16 20:49:00
Krvavec -8   2 4 2017-12-16 21:04:00
Kubed 5   - - 2017-12-16 21:04:00
Kum -5   2 3 2017-12-16 21:04:00
Lendava 1   1 2 1014 2017-12-16 20:36:00
Let. E. Rusjana Maribor 0   2 3 1014 2017-12-16 21:03:00
Let. J. Pučnika Lj. 0   2 3 1011 2015-11-26 11:03:00
Let. J. Pučnika Ljubljana -1   1 1 1014 2017-12-16 21:03:00
Letališče Cerklje ob Krki 0   1 2 1014 2017-12-16 21:04:00
Letališče Edvarda Rusjana Maribor 0   1 - 1014 2017-12-16 20:32:00
Letališče Jožeta Pučnika Ljubljana -1   1 - 1014 2017-12-16 20:32:00
Letališče Lesce -2   2 3 1014 2017-12-16 20:35:00
Letališče Portorož 3   2 3 1011 2017-12-16 21:02:00
Lisca -3   2 3 2017-12-16 21:04:00
Lisca (943 m) 9   5 12 2016-03-29 14:02:00
Litija 1   - - 2017-12-16 21:03:00
Ljubljana 0   1 2 1014 2017-12-16 21:05:00
Logarska dolina -4   - - 2017-12-16 21:03:00
Logatec 1   - - 2017-12-16 21:03:00
Luka Koper 4   1 4 2017-12-16 21:05:00
Malkovec 0   - 2 1014 2017-12-16 20:36:00
Maribor 1   2 5 2017-12-16 21:03:00
Maribor - Tabor 1   2 4 2017-12-16 21:05:00
Marinča vas -1   - - 2017-12-16 21:04:00
Metlika 3   - - 2017-12-16 21:03:00
Mežica 1   - - 2017-12-16 21:03:00
Miklavž na Gorjancih -2   - - 2017-12-16 21:03:00
Murska Sobota 0   1 2 1014 2017-12-16 21:03:00
Nanos -4   8 13 2017-12-16 21:03:00
Nova Gorica 3   - 2 2017-12-16 20:38:00
Nova vas - Bloke -2   - - 2017-12-16 21:03:00
Novo mesto 1   1 2 1014 2017-12-16 21:03:00
Osilnica 10   - - 2017-12-11 11:36:00
Otlica -2   5 9 2017-12-16 21:03:00
Otlica (965 m) 7   4 7 2016-03-31 08:24:00
Park Škocj. jame 0   1 4 1012 2017-12-16 21:02:00
Pasja ravan -4   2 4 2017-12-16 21:03:00
Pavličevo sedlo -6   - - 2017-12-09 05:13:00
Piran-ocean. boja 9   8 10 2017-12-16 20:41:00
Planina pod Golico -1   - - 2017-12-16 10:53:00
Podčetrtek 0   1 2 1014 2017-12-16 20:34:00
Podnanos 6   4 9 2017-12-16 21:03:00
Postojna 1   2 - 2017-12-16 20:32:00
Predel -5   - - 2017-12-16 21:03:00
Ptuj -1   1 1 2017-12-16 21:03:00
Ptuj - Terme -2   2 3 2017-01-19 14:35:00
Radegunda -3   - - 2017-12-16 21:04:00
Radenci 0   - - 1014 2017-12-16 20:37:00
Rateče -4   - - 2017-12-16 20:32:00
Rateče (864 m) -3   - 2 2017-12-16 20:34:00
Ratitovec -7   8 9 2017-12-16 21:03:00
Ravne na Koroškem 1   1 4 2017-12-16 20:36:00
Rogaška Slatina 0   1 1 2017-12-16 21:03:00
Rogla -7   2 4 2017-12-16 21:03:00
Rogla (1492 m) -11   4 7 2016-01-18 10:32:00
Rudno polje -9   - - 2017-12-16 21:03:00
Rudno polje (1347 m) -2   1 3 2015-10-20 07:36:00
Sevno 0   - - 2017-12-16 21:03:00
Slavnik -3   12 14 2017-12-16 21:03:00
Slovenj Gradec 1   1 - 2017-12-16 20:32:00
Slovenske Konjice 1   - - 2017-12-16 21:03:00
Sviščaki -4   9 13 2017-12-16 21:03:00
Šebreljski vrh 7   - - 2017-12-11 14:23:00
Šmartno pri Slovenj Gradcu 1   1 2 2017-12-16 21:03:00
Tatre -2   - - 2017-12-16 21:03:00
Tolmin - Volče 0   2 2 2017-12-16 21:03:00
Topol 0   - - 2017-12-16 21:03:00
Trebnje 0   - - 2017-12-16 21:03:00
Trije Kralji na Pohorju -5   - - 2017-12-16 21:03:00
Trojane - Limovce -2   3 4 1014 2017-12-16 21:03:00
Uršlja gora -8   2 4 2017-12-16 21:03:00
Vedrijan 4   - - 2017-12-16 21:03:00
Velenje 0   - - 2017-12-16 21:03:00
Velike Lašče -2   1 2 2017-12-16 21:03:00
Vogel -6   3 5 2017-12-16 21:03:00
Vojsko -1   2 - 2017-12-16 13:32:00
Vrbanski plato -2   2 3 2016-12-07 11:23:00
Vrhnika 1   - 1 2017-12-16 21:03:00
Vršič -7   - - 2017-12-16 21:03:00
Zadlog -2   - - 2017-12-16 21:04:00
Zelenica -10   - - 2017-12-16 21:03:00
Zgornja Kapla -1   4 5 2017-12-16 21:03:00
Zgornja Radovna -4   - - 2017-12-16 21:03:00
Zgornja Sorica -4   - - 2017-12-16 21:03:00
Source: Slovenian Environmental Agency, meteo.si